Preview of NWS' New Version of Forecast
This preview is not operational and should not be used for support decisions.

Regional Weather Roundup (RWR)

Issued by National Weather Service (NWS)

                            
000
ASUS45 KCYS 200810
RWRWY 

WYOMING REGIONAL WEATHER ROUNDUP
NATIONAL WEATHER SERVICE CHEYENNE WY
200 AM MDT SAT APR 20 2019

NOTE:  "FAIR" INDICATES FEW OR NO CLOUDS BELOW 12,000 FEET
WITH NO SIGNIFICANT WEATHER AND/OR OBSTRUCTIONS TO VISIBILITY.

WYZ001-200900-
...YELLOWSTONE NATIONAL PARK...
  
CITY           SKY/WX    TMP DP  RH WIND       PRES   REMARKS
LK YELLOWSTONE   N/A     30  27  88 CALM      30.03F                  
W YELLOWSTONE  NOT AVBL                                               

$$
WYZ002>013-054>058-071-098>099-200900-
...NORTHERN WYOMING...
  
CITY           SKY/WX    TMP DP  RH WIND       PRES   REMARKS
JACKSON        PTCLDY    34  29  82 NE5       29.99F WCI  30          
CODY           CLOUDY    59  29  31 SE8       29.85F                  
GREYBULL       MOCLDY    53  28  38 N5        29.79F                  
WORLAND        CLOUDY    53  34  48 CALM      29.81F                  
SHERIDAN       PTCLDY    44  33  65 CALM      29.76F                  
BUFFALO        PTCLDY    54  31  41 MISG      29.82F                  
GILLETTE       PTCLDY    50  35  56 S12       29.78F                  
HULETT         FAIR      54  34  47 SW3       29.80F                  
NEWCASTLE      FAIR      48  32  53 SE6       29.84F                  

$$
WYZ014>020-022>026-101>103-200900-
...CENTRAL WYOMING...
  
CITY           SKY/WX    TMP DP  RH WIND       PRES   REMARKS
BIG PINEY      MOCLDY    35  27  72 CALM      30.04S                  
PINEDALE       PTCLDY    30  28  93 NW5       30.05F WCI  25          
DUBOIS         FAIR      41  27  56 W16       29.97F                  
LANDER         MOCLDY    58  29  33 VRB3      29.89F                  
RIVERTON       CLOUDY    52  29  41 NW8       29.91S                  
CASPER         MOCLDY    51  32  48 SW10      29.90S                  
DOUGLAS        CLEAR     45  34  65 SE5       29.88F                  

$$
WYZ021-027>030-104>119-200900-
...SOUTHERN WYOMING...
  
CITY           SKY/WX    TMP DP  RH WIND       PRES   REMARKS
EVANSTON       MOCLDY    45  23  42 SE6       30.04F                  
KEMMERER       PTCLDY    37  28  70 CALM      30.05F                  
FORT BRIDGER   FAIR      50  23  34 W5        30.07F                  
ROCK SPRINGS   PTCLDY    45  28  51 S6        30.04F                  
DIXON          FAIR      36  26  67 SE9       30.09F WCI  29          
RAWLINS        PTCLDY    51  24  34 SW17      30.03F                  
SARATOGA       FAIR      37  27  65 SE7       30.06F WCI  32          
LARAMIE        PTCLDY    38  26  62 SE9       30.05F WCI  31          
CHEYENNE       CLEAR     45  30  55 SW10      29.99F                  
TORRINGTON     CLEAR     44  36  73 SE5       29.87F                  
PINE BLUFFS    FAIR      45  32  61 SW7       29.96F                  

$$